Flag for Bahrain Weather past 2 weeks in Riffa, Bahrain

Now
90 °F

Clear.


Feels Like: 100 °F
Forecast: 88 / 105 °F
Wind: 10 mph from Southeast

Location: Bahrain International Airport

Current Time: May 22, 2015 at 7:42:44 PM

Latest Report: May 22, 2015 at 7:00 PM


Visibility: 10 mi

Pressure: 29.62 "Hg

Humidity: 63%

Dew point: 75 °F

Location of RiffaLocation

Historic Weather in Riffa — Graph

°F

Riffa temperature yesterday

Maximum temperature yesterday: 102 °F (at 10:00 AM)
Minimum temperature yesterday: 86 °F (at 3:00 AM)
Average temperature yesterday: 93 °F

Past Weeks' High & Low Weather Summary

 TemperatureHumidityPressure
High106 °F (May 22, 10:00 AM)79% (May 7, 7:00 PM)29.86 "Hg (May 7, 7:00 PM)
Low81 °F (May 19, 2:00 AM)10% (May 20, 1:00 PM)29.59 "Hg (May 9, 5:00 PM)
Average90 °F39%29.73 "Hg
* Reported May 7 6:00 PM — May 22 6:00 PM, Riffa, Weather by CustomWeather, © 2015

Note: Actual official high and low records may vary slightly from our data, if they occured in-between our weather recording intervals... More about our weather records

Advertising

Riffa weather history for previous 24 hours

 ConditionsComfort  
Time TempWeatherWind HumidityBarometerVisibility
6:00 PM
Fri, May 22
95 °FSunny.8 mph41%29.62 "Hg10 mi
5:00 PM97 °FSunny.9 mph34%29.62 "Hg10 mi
4:00 PM99 °FSunny.10 mph35%29.62 "Hg10 mi
3:00 PM102 °FSunny.10 mph14%29.65 "Hg10 mi
2:00 PM102 °FSunny.9 mph20%29.68 "Hg10 mi
1:00 PM102 °FSunny.8 mph21%29.68 "Hg10 mi
12:00 PM104 °FPassing clouds.5 mph20%29.71 "HgN/A
11:00 AM100 °FSunny.8 mph27%29.71 "Hg10 mi
10:00 AM106 °FPassing clouds.3 mph10%29.71 "HgN/A
9:00 AM104 °FPassing clouds.5 mph11%29.71 "HgN/A
8:00 AM97 °FPassing clouds.5 mph17%29.71 "HgN/A
7:00 AM93 °FPassing clouds.6 mph21%29.68 "HgN/A
6:00 AM91 °FPassing clouds.5 mph21%29.68 "HgN/A
5:00 AM91 °FSunny.3 mph24%29.65 "Hg10 mi
4:00 AM90 °FClear.1 mph26%29.65 "Hg10 mi
3:00 AM91 °FPassing clouds.3 mph26%29.65 "HgN/A
2:00 AM90 °FPassing clouds.3 mph33%29.65 "HgN/A
1:00 AM90 °FClear.6 mph43%29.65 "Hg10 mi
12:00 AM90 °FClear.2 mph31%29.68 "Hg10 mi
11:00 PM
Thu, May 21
88 °FClear.2 mph46%29.68 "Hg10 mi
10:00 PM88 °FClear.5 mph55%29.68 "Hg10 mi
9:00 PM88 °FClear.3 mph46%29.68 "Hg10 mi
8:00 PM93 °FPassing clouds.3 mph23%29.68 "HgN/A
7:00 PM93 °FClear.2 mph19%29.68 "Hg10 mi
Weather by CustomWeather, © 2015

See weather overviewHow to use our weather pages